Retour au catalogue

COSMOS 1057

ActifMilitaireLEO
NORAD 11134·PAYLOAD·🇷🇺 Russia

Lancé Dec 5, 1978 depuis Plesetsk Cosmodrome

Loading…

Prochains Passages (prochaines 24 heures)

TLE

FraisSource: Space-Track

Époque: Sep 14, 2026, 05:11 UTC

1 11134U 78109G   26257.21628958  .00000005  00000-0  14899-3 0  9997
2 11134  74.0178 172.8119 0022338 335.8784 191.4965 12.42131731166298

Suivez COSMOS 1057 en temps réel avec AllMySat

Download on the App Store